Theta_e
299 301 301 300 300 300 297 295 292 294 296 299 300 300 309 313 314 314 312 309 307 306 306 306 307 306 306 305 305 304 302 301 301 301 301 299 300 301 300 301 299 299 297 296
296 300 300 298 300 301 301 300 298 297 295 301 301 304 312 314 314 314 312 309 308 307 307 307 307 306 306 305 304 303 302 302 302 302 301 301 299 300 300 301 298 298 298 297
290 299 298 293 297 299 302 301 301 295 300 302 302 304 311 313 315 315 312 309 308 307 308 308 308 307 305 305 304 303 302 303 303 302 302 303 300 300 299 299 298 297 297 297
291 295 286 297 304 305 301 302 304 302 302 305 304 303 307 316 315 315 312 309 308 309 309 308 307 306 306 305 304 303 302 303 304 303 303 300 299 299 298 298 298 297 297 297
287 289 295 298 302 303 300 298 304 302 304 304 306 306 306 311 316 315 312 310 310 310 309 308 306 305 305 304 303 302 302 303 304 303 300 298 298 297 296 296 296 297 298 297
290 286 286 297 306 310 308 293 304 307 305 304 305 298 302 310 312 311 311 311 309 307 307 305 305 306 304 303 302 302 302 304 305 303 299 298 297 296 296 297 298 299 299 299
289 288 293 304 307 310 294 295 305 308 308 307 303 304 307 310 308 309 309 308 307 306 305 305 305 305 303 302 302 303 304 304 302 299 299 298 296 296 297 297 297 297 298 298
292 290 288 308 305 301 302 302 307 309 310 309 307 308 309 308 307 307 306 307 307 305 304 304 305 304 301 302 302 303 304 300 298 298 299 299 296 296 296 296 296 296 297 299
293 293 302 305 305 309 307 305 308 309 313 311 310 309 309 307 307 307 307 306 306 305 303 303 303 304 302 301 302 303 300 297 296 297 298 298 296 296 295 296 296 297 298 298
295 298 301 305 308 311 310 309 311 315 314 313 311 309 308 307 306 306 306 305 306 305 303 301 302 303 303 301 303 299 297 296 297 297 297 297 299 299 297 297 296 297 297 297
294 298 301 304 307 310 311 314 315 316 313 313 311 308 308 306 305 305 305 305 306 305 303 301 302 302 301 303 302 298 297 298 297 298 298 297 297 297 298 298 298 297 298 295
289 297 300 301 305 313 311 312 315 315 312 312 311 308 309 306 306 305 304 304 304 303 302 300 301 301 302 303 302 299 297 297 297 297 298 298 297 298 297 295 293 293 293 295
292 298 298 302 309 311 311 313 316 317 314 311 310 310 309 306 305 305 304 303 303 302 301 300 301 301 303 304 302 300 298 297 297 299 298 298 296 296 296 296 293 292 291 291
294 296 293 297 297 308 314 316 316 318 315 313 311 310 308 306 305 304 303 303 302 301 300 300 301 302 304 304 302 301 300 299 299 296 295 294 297 298 296 293 291 292 292 292
293 295 295 297 299 309 315 315 315 314 313 311 310 308 307 306 305 304 303 303 302 301 300 301 302 302 304 304 302 301 300 298 298 297 296 297 296 296 295 293 292 291 291 293
293 296 298 302 306 311 313 315 313 311 311 310 308 308 308 307 305 303 303 302 300 299 300 302 301 303 305 303 301 299 300 298 296 296 295 296 294 294 293 292 292 292 291 291
292 293 297 302 308 310 311 314 315 313 311 310 309 307 306 305 303 302 301 302 301 301 301 302 302 304 305 303 300 299 299 299 297 299 297 296 292 294 293 292 292 291 291 289
295 296 297 301 306 311 311 312 314 313 311 310 308 307 305 304 302 301 301 301 301 300 302 303 303 304 304 302 300 299 299 299 299 299 297 293 291 292 292 292 292 290 290 290
296 296 299 306 311 312 310 311 312 313 310 309 307 306 305 304 303 302 302 301 300 300 300 303 300 302 302 300 299 299 299 299 302 299 293 292 291 292 293 291 291 291 291 290
296 297 299 307 313 312 310 311 312 313 310 308 306 304 303 303 304 302 302 300 301 302 302 302 301 301 301 298 296 298 298 298 297 293 292 291 291 292 290 290 291 290 290 289
299 298 305 309 311 313 315 315 314 311 309 307 306 304 303 303 304 303 301 300 300 300 301 299 301 300 299 297 297 296 296 295 294 292 294 291 290 289 290 290 290 290 290 289
299 307 312 313 313 312 314 314 312 309 308 307 306 305 303 303 303 302 301 301 299 294 300 301 300 296 297 295 296 295 295 295 293 294 293 291 289 288 288 289 290 290 289 288
306 310 312 312 312 312 314 314 310 309 307 306 306 305 304 304 303 301 299 300 300 296 301 300 290 288 288 295 296 294 294 293 293 292 290 289 288 289 289 289 289 289 288 288
305 310 311 311 313 313 311 312 310 310 309 308 307 306 303 302 300 301 300 296 293 296 298 293 289 288 290 295 295 293 293 294 291 289 289 287 288 289 289 288 288 288 288 287
310 311 311 311 311 310 310 312 310 308 307 305 305 305 304 304 302 299 301 298 292 296 294 286 289 289 295 294 292 292 293 290 289 289 290 290 289 289 289 288 288 286 285 284
311 311 311 311 311 311 310 310 308 307 305 304 304 304 303 302 300 300 299 297 297 293 293 294 295 295 294 293 293 294 291 290 290 290 290 290 289 288 288 287 285 283 282 281
307 304 310 309 311 311 311 308 307 306 305 304 303 304 302 301 299 299 295 297 296 294 294 293 294 293 293 293 293 291 290 290 290 291 290 290 289 288 286 283 282 281 280 280
Wind_Speed
8 9 12 19 25 21 7 7 7 7 10 10 10 11 11 12 12 14 16 18 17 16 15 14 15 13 11 10 10 8 7 7 7 6 5 4 4 3 3 3 5 5 4 3
9 14 13 22 33 25 10 4 4 6 5 6 3 6 8 14 17 18 18 17 17 17 18 18 17 14 13 11 10 8 7 7 6 6 5 6 4 3 2 4 5 3 3 5
6 4 6 17 8 13 9 7 11 6 11 8 6 8 13 15 19 20 18 20 21 22 20 18 17 15 14 12 9 8 7 6 6 6 5 5 4 3 3 3 3 4 4 4
2 3 6 11 19 18 15 10 7 6 8 14 12 7 9 15 20 17 16 17 17 16 15 15 14 12 11 11 10 9 7 6 6 6 5 5 4 5 2 2 4 3 5 5
4 4 7 7 10 4 5 3 11 10 4 6 8 5 3 7 10 17 20 17 16 15 16 14 15 13 13 11 9 7 7 6 6 6 5 6 6 5 3 2 2 4 4 6
3 4 9 5 1 10 11 5 9 12 10 7 7 5 7 8 11 10 12 14 16 15 14 15 13 14 13 11 9 9 7 7 6 6 6 7 6 5 3 3 4 3 6 6
3 5 7 6 7 10 5 7 7 6 8 10 7 5 5 10 7 11 12 15 15 15 15 15 14 14 12 10 11 9 6 6 5 6 7 7 5 3 3 3 4 5 6 6
4 4 7 3 3 2 5 4 4 5 6 10 6 1 6 9 13 15 17 16 14 14 13 12 13 14 11 11 8 7 6 6 6 6 4 4 5 3 3 3 5 6 6 6
6 6 3 1 5 5 6 7 6 4 10 8 7 6 10 12 14 13 15 14 13 14 14 10 10 11 12 7 8 7 7 7 6 6 5 3 3 5 3 3 4 5 4 5
4 4 4 11 6 4 7 10 7 11 15 9 8 9 12 10 13 12 12 13 14 16 14 10 7 8 8 8 7 8 8 7 5 4 3 3 3 3 3 4 4 5 5 5
7 9 8 4 5 8 8 10 7 10 8 8 12 11 13 13 12 13 13 12 13 14 13 10 8 7 7 8 8 8 7 5 4 3 3 3 3 5 4 6 6 5 6 3
7 5 5 12 11 6 8 9 7 10 5 8 8 8 14 11 11 14 14 12 12 12 12 8 8 8 7 7 8 8 6 5 4 2 2 2 3 5 7 7 7 5 5 5
13 9 13 16 13 11 13 11 7 7 4 12 10 11 13 11 9 14 12 12 13 13 10 8 8 8 7 7 7 7 6 4 2 1 3 4 2 3 3 4 10 8 9 9
15 12 21 17 11 11 7 8 7 5 2 7 13 10 11 13 13 12 12 10 11 11 9 8 8 7 7 7 7 7 5 5 2 2 2 1 4 4 3 3 2 3 9 7
20 19 19 21 17 12 7 8 7 10 9 10 8 9 14 15 13 11 9 10 11 10 8 8 8 7 6 7 7 6 4 4 3 2 2 4 2 2 4 5 4 4 3 6
12 10 12 13 14 9 5 3 5 8 10 13 12 11 12 13 12 11 10 12 13 9 8 9 7 6 6 7 6 4 3 2 2 2 2 2 3 4 4 4 4 4 4 2
6 9 7 10 10 8 7 2 8 10 9 10 12 13 15 14 13 11 9 8 9 9 9 9 8 7 6 6 7 4 3 2 3 1 2 4 3 4 4 5 5 4 3 3
10 14 14 14 14 7 5 4 5 8 11 10 12 14 14 14 13 11 10 8 8 7 7 7 7 7 6 7 6 4 3 2 1 0 3 5 4 5 5 5 5 5 3 2
15 16 14 14 8 10 10 12 8 5 9 12 13 14 13 12 12 11 10 9 10 11 7 7 9 8 7 7 7 5 4 0 1 4 5 6 5 5 5 5 5 5 4 3
18 15 15 13 7 11 10 13 12 7 9 11 11 14 12 11 11 11 9 9 10 7 7 7 6 6 6 7 8 4 3 4 6 6 5 5 5 5 5 6 5 5 4 3
15 14 11 10 10 9 11 13 14 9 11 12 14 13 12 11 12 12 10 8 5 7 8 12 7 4 4 5 5 4 5 6 6 6 6 5 5 5 5 5 5 4 3 2
9 9 9 10 10 11 8 12 14 12 11 10 11 13 13 12 11 7 5 8 4 8 7 6 5 8 6 9 6 5 6 8 6 6 6 5 5 5 5 5 5 4 3 4
6 9 13 10 6 10 14 13 11 14 14 14 14 14 12 9 9 10 8 4 7 6 6 5 8 9 8 6 6 6 7 7 6 5 5 5 5 5 5 5 4 4 4 3
6 8 13 11 7 7 14 14 13 12 12 12 12 12 13 9 4 4 6 8 14 10 6 6 7 11 9 7 8 6 6 6 6 5 6 6 5 5 5 5 4 4 4 4
8 10 13 13 12 8 7 12 12 12 13 12 11 9 10 5 7 4 8 6 14 10 6 6 12 12 8 8 7 8 7 5 5 6 6 6 5 5 5 4 4 4 4 4
11 9 10 11 9 10 8 7 8 8 11 10 8 8 7 7 7 7 7 9 7 9 7 6 8 8 8 8 8 9 7 6 6 6 7 6 6 5 5 4 4 4 4 3
6 5 8 8 7 10 8 7 9 9 9 10 10 8 8 7 7 8 10 8 7 8 7 7 7 8 8 8 9 8 6 6 6 7 6 6 5 5 5 4 4 4 4 4
Wind_Direction
227 288 313 308 309 281 205 183 169 218 183 221 206 187 178 159 161 171 176 176 173 163 167 166 167 165 167 172 172 164 163 170 193 202 202 220 236 207 177 204 189 196 197 220
254 282 285 308 307 282 224 161 118 142 239 193 179 95 146 168 168 182 185 174 169 168 166 172 170 166 167 170 171 158 170 185 192 177 192 208 202 227 118 172 180 176 215 228
266 271 337 312 292 303 223 200 144 164 218 158 167 186 177 175 182 188 182 174 173 176 175 173 172 162 168 168 153 161 169 186 182 171 205 195 201 203 185 203 190 216 236 241
222 26 225 220 310 310 251 228 189 148 194 182 177 180 167 182 181 186 179 172 174 171 172 168 157 156 149 153 159 165 172 182 169 173 191 162 180 205 196 189 212 234 263 266
168 195 319 287 286 323 339 360 29 341 287 143 119 103 108 186 191 186 181 172 172 171 161 152 150 146 147 153 153 157 178 183 181 175 167 173 189 206 212 218 243 250 258 277
157 205 220 214 264 295 285 275 8 5 340 305 142 136 231 168 138 143 150 161 160 148 143 140 146 145 146 151 154 176 183 191 184 172 168 187 189 199 221 217 245 277 281 263
183 216 283 283 336 322 244 268 315 341 314 308 267 203 168 141 106 130 140 138 139 142 148 144 142 139 145 149 172 183 172 177 169 171 172 184 185 210 225 253 276 286 290 295
157 195 254 153 31 267 250 284 269 294 306 289 287 267 113 109 115 128 129 136 139 132 133 139 137 139 142 165 171 151 160 156 164 170 184 174 206 245 261 272 285 285 291 297
200 230 260 5 202 232 209 247 283 270 278 263 198 231 148 146 133 136 139 136 131 130 124 125 128 143 150 173 146 154 148 150 169 167 199 196 216 262 283 270 265 283 281 284
2 326 294 297 307 254 231 245 258 276 269 199 174 167 132 127 134 129 133 130 128 129 130 129 128 137 152 146 143 138 143 167 165 177 219 263 271 257 257 268 280 265 266 260
279 295 308 317 304 287 288 282 296 286 244 170 158 162 146 141 138 132 127 125 133 131 130 133 129 135 142 139 136 137 140 162 170 192 235 276 271 253 267 256 223 269 275 229
250 280 274 298 314 281 271 279 310 294 275 112 133 149 138 133 135 132 126 124 119 121 127 136 135 140 139 144 144 136 145 156 168 201 255 263 278 311 259 273 332 340 277 199
267 310 297 290 288 276 271 258 259 268 223 118 108 133 125 131 120 119 120 124 132 142 136 133 138 136 147 141 135 140 147 166 180 250 267 254 311 283 317 12 44 24 48 60
280 290 298 295 274 288 265 264 230 187 101 106 119 123 121 122 120 123 133 133 127 128 132 138 139 144 149 138 139 144 153 154 176 203 232 197 255 262 176 163 101 3 26 62
260 268 260 272 284 260 256 262 211 168 150 106 118 131 128 129 133 129 126 127 122 127 132 144 149 149 147 136 144 157 154 157 176 203 203 241 297 67 112 112 97 97 89 40
266 262 273 269 254 251 243 52 155 129 127 132 142 153 130 123 124 126 132 130 137 153 152 156 146 151 142 145 147 149 141 127 156 61 328 354 100 119 106 98 90 94 91 75
243 281 301 290 272 241 222 148 195 135 134 151 149 133 123 127 123 130 138 141 138 146 157 154 154 139 149 158 153 146 139 119 106 199 207 130 125 128 120 105 98 92 80 45
229 250 260 263 275 234 162 142 108 119 156 155 141 133 136 145 142 148 141 130 127 131 150 151 141 148 154 152 155 152 133 120 109 228 129 117 119 117 110 107 107 104 92 58
240 245 250 252 248 190 168 152 189 140 134 144 154 148 144 140 143 137 132 140 149 150 179 149 157 157 160 160 145 139 142 69 67 107 116 104 90 102 108 113 110 107 109 88
244 238 242 241 172 177 168 160 193 155 159 151 147 129 131 139 131 133 140 154 161 163 145 154 160 164 156 142 135 141 134 119 114 109 111 109 111 107 108 100 110 112 105 83
229 223 209 177 163 178 168 160 167 178 157 154 144 137 137 134 140 144 137 145 190 149 147 143 147 140 122 135 117 118 116 113 111 111 108 100 101 97 99 104 108 112 106 78
217 182 149 156 156 150 146 150 144 141 135 131 128 130 132 137 136 129 136 152 147 142 133 131 139 130 136 118 103 104 105 100 99 105 115 108 103 108 106 109 112 110 99 78
207 154 144 132 163 158 160 127 140 136 137 144 146 143 139 141 148 141 146 156 130 132 128 122 122 126 112 96 104 104 103 106 110 106 104 102 107 109 111 112 108 103 91 86
186 150 143 132 147 138 152 148 140 140 137 131 131 130 134 131 87 115 104 128 132 127 110 133 126 120 104 104 109 100 102 103 100 97 96 93 99 97 96 103 98 86 82 74
144 143 141 141 158 140 134 113 114 120 117 114 118 117 121 133 135 148 127 123 121 109 118 120 118 113 109 109 114 111 110 107 107 108 104 105 102 102 100 97 94 91 77 63
144 160 156 148 148 130 123 110 119 128 124 120 118 121 112 111 115 115 111 110 106 115 112 114 112 110 113 116 114 114 109 111 110 105 109 106 107 102 100 97 89 80 73 57
70 83 124 110 120 137 144 127 126 127 127 130 120 121 120 117 107 104 101 107 108 108 105 100 106 107 114 116 107 103 101 104 112 112 104 105 100 103 102 100 93 83 69 56